DW4391 Weather Reports


Display with metric or nautical units.
time (UTC)temp
F
wind
direction
speed
MPH
gust
MPH
rain 1hr
in
rain 24hr
in
rain mn
in
humidity
%
barometer
mb
20180820205115 82 170 0.0 0.0 0.00 0.00 0.00 79 1013.2
20180820203608 83 169 0.0 2.0 0.00 0.00 0.00 77 1013.3
20180820202103 82 159 0.0 1.0 0.00 0.00 0.00 80 1013.3
20180820200601 81 159 0.0 0.0 0.00 0.00 0.00 81 1013.4
20180820195053 80 153 1.0 2.0 0.00 0.00 0.00 81 1013.6
20180820193553 80 158 0.0 0.0 0.00 0.00 0.00 82 1013.7
20180820192051 80 158 0.0 1.0 0.00 0.00 0.00 83 1013.9
20180820190541 80 162 0.0 1.0 0.00 0.00 0.00 81 1014.0
20180820185039 80 161 0.0 2.0 0.00 0.00 0.00 82 1014.3
20180820183534 79 159 0.0 3.0 0.00 0.00 0.00 83 1014.4
20180820182032 79 167 0.0 1.0 0.00 0.00 0.00 83 1014.6
20180820180523 78 162 0.0 2.0 0.00 0.00 0.00 83 1014.7
20180820175019 77 159 0.0 1.0 0.00 0.00 0.00 82 1015.0
20180820173513 77 158 0.0 1.0 0.00 0.00 0.00 79 1015.3
20180820172009 76 167 0.0 1.0 0.00 0.00 0.00 79 1015.3
20180820170504 76 166 0.0 1.0 0.00 0.00 0.00 79 1015.5
20180820165001 75 173 0.0 2.0 0.00 0.02 0.00 78 1015.8
20180820163456 75 174 0.0 2.0 0.00 0.02 0.00 77 1015.9
20180820161951 75 156 0.0 2.0 0.00 0.02 0.00 71 1016.0
20180820160451 74 159 0.0 1.0 0.00 0.02 0.00 68 1016.2
20180820154941 73 165 0.0 2.0 0.00 0.02 0.00 66 1016.3
20180820153442 73 171 0.0 2.0 0.00 0.02 0.00 62 1016.4
20180820151938 73 160 0.0 1.0 0.00 0.02 0.00 68 1016.4
20180820150433 73 165 0.0 1.0 0.00 0.02 0.00 66 1016.4
20180820144925 73 165 0.0 0.0 0.00 0.02 0.00 63 1016.2
20180820143420 72 165 0.0 1.0 0.00 0.02 0.00 61 1016.0
20180820141918 72 165 0.0 1.0 0.00 0.02 0.00 64 1015.9
20180820140414 72 160 0.0 0.0 0.00 0.02 0.00 63 1015.6
20180820134905 72 159 0.0 1.0 0.00 0.02 0.00 60 1015.4
20180820133407 71 160 0.0 0.0 0.00 0.02 0.00 46 1015.3
20180820131857 71 162 0.0 0.0 0.00 0.02 0.00 33 1015.2
20180820130353 71 158 0.0 1.0 0.00 0.02 0.00 19 1015.1
20180820124849 70 166 0.0 0.0 0.00 0.02 0.00 5 1015.2
20180820123343 70 166 0.0 0.0 0.00 0.02 0.00 3 1015.3
20180820121844 70 166 0.0 0.0 0.00 0.02 0.00 1 1015.3
20180820120336 70 167 0.0 0.0 0.00 0.02 0.00 100 1015.1
20180820114831 70 166 0.0 0.0 0.00 0.02 0.00 100 1015.3
20180820113325 70 166 0.0 0.0 0.00 0.02 0.00 100 1015.0
20180820111820 70 166 0.0 0.0 0.00 0.02 0.00 100 1014.8
20180820110319 70 167 0.0 0.0 0.00 0.02 0.00 100 1014.5
20180820104811 70 163 0.0 1.0 0.00 0.02 0.00 100 1014.4
20180820103308 70 167 0.0 0.0 0.00 0.02 0.00 100 1014.2
20180820101801 70 166 0.0 1.0 0.00 0.02 0.00 100 1014.1
20180820100256 70 163 0.0 0.0 0.00 0.02 0.00 100 1014.0
20180820094755 70 163 0.0 0.0 0.00 0.02 0.00 100 1014.0
20180820093249 70 164 0.0 0.0 0.00 0.02 0.00 100 1014.0
20180820091747 70 163 0.0 0.0 0.00 0.02 0.00 100 1013.9
20180820090238 70 163 0.0 0.0 0.00 0.02 0.00 100 1013.8
20180820084739 70 163 0.0 0.0 0.00 0.02 0.00 100 1013.9
20180820083230 70 163 0.0 0.0 0.00 0.02 0.00 100 1014.0
20180820081730 70 163 0.0 0.0 0.00 0.02 0.00 100 1013.9
20180820080221 70 163 0.0 0.0 0.00 0.02 0.00 100 1014.0
20180820074716 70 163 0.0 1.0 0.00 0.02 0.00 100 1014.0
20180820073212 70 163 0.0 1.0 0.00 0.02 0.00 100 1013.9
20180820071708 70 163 0.0 0.0 0.00 0.02 0.00 100 1013.7
20180820070202 70 163 0.0 0.0 0.00 0.02 0.00 100 1013.7
20180820064701 70 163 0.0 0.0 0.00 0.02 0.00 100 1013.7
20180820063200 71 163 0.0 0.0 0.00 0.02 0.00 100 1013.8
20180820061658 71 163 0.0 1.0 0.00 0.02 0.00 100 1013.9
20180820060145 71 163 0.0 0.0 0.00 0.02 0.00 100 1013.9
20180820054641 71 163 0.0 0.0 0.00 0.02 0.00 100 1014.1
20180820053142 71 164 0.0 1.0 0.00 0.02 0.00 100 1014.3
20180820051644 71 163 0.0 0.0 0.00 0.02 0.00 100 1014.2
20180820050128 72 163 0.0 0.0 0.00 0.02 0.00 100 1014.1
20180820044626 72 163 0.0 1.0 0.00 0.02 0.00 100 1014.1
20180820043124 72 163 0.0 0.0 0.00 0.02 0.00 100 1014.1
20180820041616 72 163 0.0 0.0 0.00 0.02 0.00 100 1013.9
20180820040108 72 163 0.0 0.0 0.00 0.02 0.02 100 1013.8
20180820034605 72 163 0.0 0.0 0.00 0.02 0.02 100 1013.7
20180820033102 72 163 0.0 0.0 0.00 0.02 0.02 100 1013.5
20180820031610 72 163 0.0 0.0 0.00 0.02 0.02 100 1013.4
20180820030053 72 163 0.0 0.0 0.00 0.02 0.02 100 1013.2
20180820024549 72 163 0.0 0.0 0.00 0.02 0.02 3 1013.0
20180820023059 72 163 0.0 0.0 0.00 0.02 0.02 9 1012.9
20180820021615 72 163 0.0 0.0 0.00 0.02 0.02 19 1012.9
20180820020046 72 164 0.0 0.0 0.00 0.02 0.02 24 1012.8
20180820014540 72 163 0.0 0.0 0.00 0.02 0.02 27 1012.7
20180820013024 72 163 0.0 0.0 0.00 0.02 0.02 35 1012.5
20180820011520 72 164 0.0 0.0 0.00 0.02 0.02 48 1012.4
20180820010018 73 163 0.0 0.0 0.00 0.02 0.02 56 1012.2
20180820004520 73 163 0.0 0.0 0.00 0.02 0.02 68 1012.1
20180820003008 74 163 0.0 0.0 0.00 0.02 0.02 77 1011.9
20180820001502 75 169 0.0 0.0 0.00 0.02 0.02 82 1012.1
20180820000000 76 172 0.0 0.0 0.00 0.14 0.02 84 1012.0
20180819234458 77 172 0.0 1.0 0.00 0.14 0.02 83 1012.1
20180819232949 78 155 0.0 3.0 0.00 0.14 0.02 84 1011.8
20180819231444 79 160 0.0 1.0 0.00 0.14 0.02 83 1011.6
20180819225939 79 155 0.0 0.0 0.00 0.14 0.02 83 1011.5
20180819224440 79 155 0.0 1.0 0.00 0.14 0.02 84 1011.6
20180819222929 79 155 0.0 2.0 0.00 0.14 0.02 84 1011.6
20180819221426 79 169 0.0 0.0 0.00 0.14 0.02 84 1011.7
20180819215921 80 169 0.0 2.0 0.00 0.14 0.02 83 1011.8
20180819214419 80 153 0.0 3.0 0.00 0.14 0.02 82 1011.8
20180819212915 80 150 0.0 2.0 0.00 0.14 0.02 83 1011.8
20180819211411 80 173 0.0 0.0 0.00 0.14 0.02 82 1011.8
20180819205904 81 173 0.0 1.0 0.00 0.14 0.02 81 1011.8